x

South Hatteras - 225 South Of Cape Hatteras (41002) Wave Buoy

1:50 - Sun 23rd Jul 2017 All times are EDT. -4 hours from GMT.

  • Sig Wave height 4.9ft
  • Swell Direction
  • Peak Period 6s
  • Average Period 5s
  • Wind
    18mph, 20mph gusts
  • Sea Temp 84°f
  • Ar Temp 82°f
  • Sea Pressure 1017.1mb
  • South Hatteras - 225 South Of Cape Hatteras
  • South Hatteras - 225 South Of Cape Hatteras

More Historic Weather Station data

Upgrade to MSW Pro to gain access to the past 30 days of data for over 8000 Wavebouys and Weather Stations around the globe.

Join Pro

Comparision Forecast

View Surf forecast
   
Dom 07/23 1:50 5ft 6s 5s 18 20 mph 1017.1mb 84f 82f
12:50 5ft 6s 5s 18 20 mph 1017.3mb 84f 82f
11:50 4.5ft 6s 5s 20 25 mph 1017.7mb 84f 83f
10:50 4.5ft 6s 5s 20 25 mph 1017.2mb 83f 84f
9:50 4.5ft 5s 5s 18 22 mph 1017mb 83f 83f
8:50 4.5ft 6s 5s 18 22 mph 1017mb 83f 84f
7:50 4.5ft 5s 5s 20 25 mph 1016.6mb 83f 83f
6:50 4.5ft 5s 5s 20 22 mph 1016.5mb 83f 83f
5:50 4.5ft 9s 5s 20 22 mph 1016mb 83f 83f
4:50 4.5ft 9s 5s 20 25 mph 1015.4mb 83f 83f
3:50 4.5ft 5s 5s 20 22 mph 1015.5mb 83f 83f
2:50 5ft 9s 5s 18 22 mph 1016.4mb 83f 83f
1:50 4.5ft 9s 5s 18 20 mph 1016.9mb 83f 83f
12:50 4.5ft 9s 5s 20 22 mph 1017.1mb 83f 84f
Sáb 07/22 11:50 4.5ft 8s 5s 18 22 mph 1017.3mb 83f 83f
10:50 4.5ft 8s 5s 18 22 mph 1017.4mb 83f 84f
9:50 4.5ft 9s 5s 20 22 mph 1017.3mb 84f 84f
8:50 4ft 9s 5s 20 22 mph 1017.2mb 84f 84f
7:50 4ft 8s 5s 18 20 mph 1016.8mb 84f 83f
6:50 4ft 10s 5s 16 20 mph 1016.5mb 84f 84f
5:50 4.5ft 9s 5s 16 18 mph 1016.5mb 84f 84f
4:50 4ft 9s 5s 16 18 mph 1017.1mb 84f 83f
3:50 3.5ft 9s 5s 16 18 mph 1017.6mb 84f 84f
2:50 3.5ft 10s 5s 16 18 mph 1018.4mb 84f 83f
1:50 3.5ft 9s 5s 13 16 mph 1018.9mb 84f 84f
12:50 3.5ft 9s 6s 13 16 mph 1019.4mb 84f 83f
11:50 3.5ft 9s 5s 13 13 mph 1019.6mb 84f 83f
10:50 3.5ft 10s 6s 13 16 mph 1019.6mb 83f 83f
9:50 4ft 9s 6s 13 16 mph 1019.2mb 83f 83f
8:50 3.5ft 9s 5s 11 16 mph 1018.9mb 83f 82f
7:50 3.5ft 10s 6s 16 18 mph 1018.6mb 83f 83f
6:50 4ft 10s 6s 13 16 mph 1018.1mb 83f 83f
5:50 3.5ft 8s 6s 13 16 mph 1017.7mb 83f 82f
4:50 4.5ft 9s 6s 13 16 mph 1017.5mb 83f 82f
3:50 3.5ft 8s 5s 16 18 mph 1017.3mb 83f 82f
2:50 4ft 9s 5s 16 18 mph 1017.5mb 83f 82f
1:50 4ft 10s 6s 13 18 mph 1018mb 84f 82f
12:50 3.5ft 10s 5s 16 20 mph 1018.5mb 83f 82f
Sex 07/21 11:50 4ft 8s 6s 16 18 mph 1018.6mb 84f 82f
10:50 3.5ft 9s 6s 16 18 mph 1018.7mb 84f 83f
9:50 3.5ft 10s 6s 16 18 mph 1018.7mb 84f 83f
8:50 3.5ft 8s 6s 9 11 mph 1018.4mb 84f 83f
7:50 3.5ft 10s 6s 11 13 mph 1018.3mb 84f 83f
6:50 3.5ft 8s 6s 9 11 mph 1018.2mb 84f 83f
5:50 3.5ft 9s 6s 11 13 mph 1017.5mb 84f 83f
4:50 3.5ft 9s 6s 11 13 mph 1018.1mb 84f 83f
3:50 3.5ft 9s 6s 11 13 mph 1018.4mb 84f 83f
2:50 3.5ft 9s 6s 11 13 mph 1018.7mb 84f 82f
1:50 3.5ft 9s 6s 11 13 mph 1019mb 84f 82f
12:50 3.5ft 8s 6s 11 13 mph 1019.2mb 84f 82f
11:50 3.5ft 8s 6s 11 11 mph 1019.4mb 84f 82f
10:50 3.5ft 9s 6s 9 11 mph 1019.2mb 83f 82f
9:50 3.5ft 9s 6s 9 11 mph 1019.1mb 83f 82f
8:50 3.5ft 8s 6s 11 11 mph 1018.9mb 83f 82f
7:50 3.5ft 8s 6s 11 13 mph 1018.5mb 83f 82f
6:50 3.5ft 8s 6s 13 16 mph 1017.5mb 83f 82f
5:50 3.5ft 8s 6s 9 11 mph 1017.3mb 83f 81f
4:50 3.5ft 8s 6s 9 11 mph 1017.2mb 83f 81f
3:50 3.5ft 8s 6s 9 9 mph 1017.1mb 83f 81f
2:50 3.5ft 8s 6s 9 11 mph 1016.8mb 83f 81f
1:50 3.5ft 8s 5s 11 13 mph 1017.5mb 83f 81f
12:50 3ft 8s 5s 13 16 mph 1018.2mb 83f 81f
Qui 07/20 11:50 3ft 9s 5s 13 16 mph 1018.5mb 83f 81f
10:50 3.5ft 7s 6s 13 16 mph 1018.9mb 84f 81f
9:50 3.5ft 8s 6s 11 13 mph 1018.8mb 84f 81f
8:50 3.5ft 7s 6s 11 13 mph 1018.3mb 84f 80f
7:50 3.5ft 8s 6s 7 11 mph 1017.4mb 84f 80f
6:50 3.5ft 8s 6s 9 11 mph 1017.2mb 84f 81f
5:50 3.5ft 8s 6s 11 16 mph 1017.7mb 84f 82f
4:50 3ft 8s 5s 11 13 mph 1017.8mb 84f 81f
3:50 3.5ft 7s 6s 9 11 mph 1018.4mb 84f 81f
2:50 3.5ft 7s 5s 11 16 mph 1018.9mb 84f 80f
1:50 3.5ft 8s 6s 16 18 mph 1019.5mb 84f 82f
12:50 3ft 7s 6s 11 13 mph 1020.1mb 84f 82f
11:50 3.5ft 7s 6s 7 9 mph 1020.4mb 84f 82f
10:50 3.5ft 7s 6s 7 9 mph 1020mb 84f 81f
9:50 3.5ft 8s 6s 4 7 mph 1019.7mb 84f 81f
8:50 3.5ft 5s 6s 4 7 mph 1019.7mb 83f 81f
7:50 3.5ft 8s 6s 4 7 mph 1019.7mb 83f 81f
6:50 3.5ft 7s 6s 2 4 mph 1019.5mb 83f 80f
5:50 3.5ft 7s 6s 7 11 mph 1018.8mb 83f 80f
4:50 4ft 8s 6s 9 11 mph 1018.6mb 83f 81f
3:50 3.5ft 7s 6s 11 13 mph 1018.1mb 83f 80f
2:50 3.5ft 7s 5s 11 13 mph 1018.2mb 83f 81f
1:50 3.5ft 8s 5s 13 16 mph 1018.5mb 83f 81f
12:50 4ft 7s 5s 16 18 mph 1018.9mb 83f 81f
Qua 07/19 11:50 3.5ft 7s 5s 16 20 mph 1018.9mb 83f 81f
10:50 3.5ft 8s 5s 18 20 mph 1019mb 83f 81f
9:50 3.5ft 8s 5s 18 22 mph 1019mb 83f 81f
8:50 3.5ft 7s 6s 16 18 mph 1018.8mb 83f 80f
7:50 4ft 8s 6s 13 16 mph 1018.6mb 83f 79f
6:50 3.5ft 7s 6s 9 11 mph 1018.7mb 83f 77f